AMV105 LZIB-LZKZ

Flight info

Callsign AMV105
Flight time 0h 35m
Altitude 23000
Route NIT N190 TAKOS
Aircraft B38M/M-SDE1FGHILORVWXY/HB1

Departure

Time 2026-05-07 17:40
Airport M. R. Štefánik Airport (LZIB)

Arrival

Time 2026-05-07 18:15
Airport Košice International Airport (LZKZ)
Time Latitude Longitude Altitude Speed Heading
2026-05-07 17:14 48.16914 17.20092 434 ft 0 kts 314°
2026-05-07 17:30 48.16904 17.20108 427 ft 4 kts 313°
2026-05-07 17:30 48.16885 17.20135 429 ft 4 kts 328°
2026-05-07 17:30 48.16869 17.20142 436 ft 2 kts 42°
2026-05-07 17:31 48.16867 17.20139 437 ft 1 kts 44°
2026-05-07 17:35 48.16868 17.20140 437 ft 1 kts 44°
2026-05-07 17:35 48.16881 17.20160 433 ft 4 kts 44°
2026-05-07 17:35 48.16913 17.20204 441 ft 8 kts 43°
2026-05-07 17:35 48.16960 17.20273 431 ft 11 kts 44°
2026-05-07 17:36 48.17022 17.20364 437 ft 15 kts 44°
2026-05-07 17:36 48.17105 17.20486 436 ft 15 kts 44°
2026-05-07 17:36 48.17176 17.20569 425 ft 13 kts 15°
2026-05-07 17:36 48.17253 17.20517 436 ft 9 kts 313°
2026-05-07 17:37 48.17298 17.20447 437 ft 10 kts 314°
2026-05-07 17:37 48.17349 17.20372 435 ft 0 kts 316°
2026-05-07 17:37 48.17364 17.20351 429 ft 6 kts 316°
2026-05-07 17:37 48.17410 17.20306 431 ft 10 kts 343°
2026-05-07 17:38 48.17473 17.20307 428 ft 11 kts 18°
2026-05-07 17:38 48.17536 17.20387 432 ft 12 kts 58°
2026-05-07 17:38 48.17522 17.20475 428 ft 0 kts 135°
2026-05-07 17:39 48.17517 17.20482 433 ft 7 kts 135°
2026-05-07 17:39 48.17322 17.20784 430 ft 80 kts 134°
2026-05-07 17:39 48.16762 17.21645 426 ft 147 kts 135°
2026-05-07 17:40 48.15979 17.22909 757 ft 172 kts 136°
2026-05-07 17:40 48.15136 17.24142 1596 ft 170 kts 135°
2026-05-07 17:40 48.14345 17.25467 2436 ft 171 kts 135°
2026-05-07 17:40 48.13485 17.26855 2927 ft 195 kts 135°
2026-05-07 17:41 48.12469 17.28417 3388 ft 220 kts 134°
2026-05-07 17:41 48.11613 17.30398 4032 ft 240 kts 103°
2026-05-07 17:41 48.11743 17.32928 4672 ft 258 kts 69°
2026-05-07 17:41 48.12584 17.35373 4787 ft 268 kts 64°
2026-05-07 17:42 48.13382 17.37896 4949 ft 276 kts 66°
2026-05-07 17:42 48.14146 17.40517 5950 ft 273 kts 67°
2026-05-07 17:42 48.14881 17.43161 6878 ft 279 kts 68°
2026-05-07 17:42 48.15610 17.45865 7793 ft 281 kts 69°
2026-05-07 17:43 48.16336 17.48602 8770 ft 284 kts 69°
2026-05-07 17:43 48.17061 17.51371 9696 ft 288 kts 69°
2026-05-07 17:43 48.17788 17.54197 10461 ft 297 kts 70°
2026-05-07 17:43 48.18465 17.57230 10912 ft 317 kts 71°
2026-05-07 17:44 48.19164 17.60385 11478 ft 331 kts 71°
2026-05-07 17:44 48.19903 17.63700 12271 ft 336 kts 71°
2026-05-07 17:44 48.20647 17.67038 13231 ft 340 kts 71°
2026-05-07 17:44 48.21401 17.70417 14060 ft 345 kts 71°
2026-05-07 17:45 48.22169 17.73871 14838 ft 352 kts 72°
2026-05-07 17:45 48.22946 17.77364 15685 ft 356 kts 72°
2026-05-07 17:45 48.23735 17.80921 16465 ft 362 kts 72°
2026-05-07 17:45 48.24536 17.84536 17210 ft 369 kts 73°
2026-05-07 17:46 48.25359 17.88256 17754 ft 382 kts 74°
2026-05-07 17:46 48.26203 17.92082 18439 ft 389 kts 74°
2026-05-07 17:46 48.27054 17.95944 19115 ft 393 kts 74°
2026-05-07 17:46 48.27913 17.99851 19822 ft 396 kts 75°
2026-05-07 17:47 48.28781 18.03801 20516 ft 399 kts 76°
2026-05-07 17:47 48.29443 18.07786 21183 ft 400 kts 81°
2026-05-07 17:47 48.30064 18.11874 21847 ft 404 kts 81°
2026-05-07 17:47 48.30703 18.15991 22537 ft 407 kts 81°
2026-05-07 17:48 48.31359 18.20162 22921 ft 414 kts 81°
2026-05-07 17:48 48.32031 18.24412 22957 ft 421 kts 81°
2026-05-07 17:48 48.32708 18.28702 22966 ft 423 kts 81°
2026-05-07 17:48 48.33385 18.32999 22977 ft 424 kts 81°
2026-05-07 17:49 48.34063 18.37316 22955 ft 424 kts 81°
2026-05-07 17:49 48.34740 18.41637 22974 ft 425 kts 81°
2026-05-07 17:49 48.35415 18.45955 22984 ft 425 kts 81°
2026-05-07 17:49 48.36081 18.50228 22982 ft 425 kts 81°
2026-05-07 17:50 48.36743 18.54552 22983 ft 425 kts 82°
2026-05-07 17:50 48.37405 18.58879 22979 ft 425 kts 82°
2026-05-07 17:50 48.38065 18.63204 22979 ft 425 kts 81°
2026-05-07 17:50 48.38723 18.67529 22983 ft 424 kts 82°
2026-05-07 17:51 48.39380 18.71859 22988 ft 425 kts 82°
2026-05-07 17:51 48.40035 18.76191 22995 ft 425 kts 82°
2026-05-07 17:51 48.40690 18.80528 23009 ft 425 kts 82°
2026-05-07 17:51 48.41342 18.84861 22955 ft 424 kts 82°
2026-05-07 17:52 48.41990 18.89170 22990 ft 420 kts 82°
2026-05-07 17:52 48.42629 18.93441 22995 ft 418 kts 82°
2026-05-07 17:52 48.43258 18.97657 22999 ft 418 kts 82°
2026-05-07 17:52 48.43893 19.01923 22991 ft 418 kts 82°
2026-05-07 17:53 48.44526 19.06183 22998 ft 418 kts 82°
2026-05-07 17:53 48.45155 19.10450 22995 ft 417 kts 83°
2026-05-07 17:53 48.45660 19.14745 23001 ft 416 kts 85°
2026-05-07 17:53 48.46155 19.19036 23004 ft 416 kts 84°
2026-05-07 17:54 48.46657 19.23330 23003 ft 416 kts 84°
2026-05-07 17:54 48.47159 19.27619 22999 ft 416 kts 84°
2026-05-07 17:54 48.47660 19.31905 23003 ft 416 kts 84°
2026-05-07 17:54 48.48155 19.36144 22929 ft 403 kts 84°
2026-05-07 17:55 48.48625 19.40185 22753 ft 393 kts 84°
2026-05-07 17:55 48.49092 19.44216 22327 ft 389 kts 84°
2026-05-07 17:55 48.49554 19.48211 21908 ft 385 kts 84°
2026-05-07 17:55 48.50011 19.52175 21493 ft 382 kts 84°
2026-05-07 17:56 48.50461 19.56098 21081 ft 379 kts 84°
2026-05-07 17:56 48.50904 19.60005 20632 ft 377 kts 84°
2026-05-07 17:56 48.51342 19.63882 20272 ft 373 kts 84°
2026-05-07 17:56 48.51774 19.67711 19911 ft 367 kts 84°
2026-05-07 17:57 48.52200 19.71502 19512 ft 365 kts 84°
2026-05-07 17:57 48.52478 19.73989 19286 ft 363 kts 84°
2026-05-07 17:57 48.53031 19.78940 18771 ft 361 kts 84°
2026-05-07 17:57 48.53446 19.82662 18399 ft 359 kts 84°
2026-05-07 17:58 48.53857 19.86366 17946 ft 358 kts 84°
2026-05-07 17:58 48.54269 19.90086 17461 ft 362 kts 84°
2026-05-07 17:58 48.54685 19.93854 16987 ft 364 kts 84°
2026-05-07 17:58 48.55099 19.97622 16517 ft 364 kts 84°
2026-05-07 17:59 48.55513 20.01391 16068 ft 364 kts 84°
2026-05-07 17:59 48.55924 20.05161 15617 ft 363 kts 84°
2026-05-07 17:59 48.56334 20.08917 15183 ft 363 kts 84°
2026-05-07 17:59 48.56741 20.12673 14757 ft 361 kts 84°
2026-05-07 18:00 48.57146 20.16401 14328 ft 360 kts 84°
2026-05-07 18:00 48.57547 20.20116 13902 ft 355 kts 84°
2026-05-07 18:00 48.57936 20.23732 13442 ft 345 kts 84°
2026-05-07 18:00 48.58375 20.27283 12993 ft 345 kts 77°
2026-05-07 18:01 48.59151 20.30721 12543 ft 346 kts 73°
2026-05-07 18:01 48.59918 20.34166 12093 ft 345 kts 74°
2026-05-07 18:01 48.60653 20.37561 11631 ft 344 kts 74°
2026-05-07 18:01 48.61376 20.40968 11192 ft 339 kts 75°
2026-05-07 18:02 48.62784 20.47691 10240 ft 332 kts 75°
2026-05-07 18:02 48.63471 20.50997 9763 ft 329 kts 75°
2026-05-07 18:02 48.64152 20.54286 9261 ft 326 kts 75°
2026-05-07 18:03 48.64809 20.57456 9170 ft 304 kts 75°
2026-05-07 18:03 48.65414 20.60385 9161 ft 281 kts 75°
2026-05-07 18:03 48.65978 20.63122 9171 ft 268 kts 75°
2026-05-07 18:03 48.66541 20.65854 9171 ft 278 kts 75°
2026-05-07 18:04 48.67115 20.68651 9141 ft 286 kts 75°
2026-05-07 18:04 48.67712 20.71550 8955 ft 290 kts 75°
2026-05-07 18:04 48.68309 20.74461 8722 ft 289 kts 75°
2026-05-07 18:04 48.68902 20.77355 8510 ft 288 kts 75°
2026-05-07 18:05 48.69496 20.80243 8259 ft 288 kts 75°
2026-05-07 18:05 48.70096 20.83136 8019 ft 287 kts 75°
2026-05-07 18:05 48.70690 20.86010 7783 ft 286 kts 75°
2026-05-07 18:05 48.71281 20.88879 7554 ft 286 kts 74°
2026-05-07 18:06 48.71873 20.91746 7316 ft 285 kts 74°
2026-05-07 18:06 48.72461 20.94597 7076 ft 284 kts 74°
2026-05-07 18:06 48.73046 20.97448 6854 ft 283 kts 73°
2026-05-07 18:06 48.73623 21.00258 6632 ft 282 kts 74°
2026-05-07 18:07 48.74308 21.03030 6391 ft 282 kts 59°
2026-05-07 18:07 48.75653 21.05144 6100 ft 280 kts 30°
2026-05-07 18:07 48.77443 21.06167 5845 ft 273 kts 10°
2026-05-07 18:07 48.79289 21.06831 5657 ft 273 kts 11°
2026-05-07 18:08 48.81107 21.07491 5435 ft 260 kts 10°
2026-05-07 18:08 48.82722 21.08414 5595 ft 240 kts 26°
2026-05-07 18:08 48.84207 21.09623 5663 ft 244 kts 36°
2026-05-07 18:08 48.85222 21.11635 5460 ft 243 kts 72°
2026-05-07 18:09 48.85346 21.14121 5379 ft 237 kts 100°
2026-05-07 18:09 48.85237 21.16624 5275 ft 234 kts 94°
2026-05-07 18:09 48.85191 21.19023 5114 ft 222 kts 96°
2026-05-07 18:09 48.84960 21.21257 4918 ft 212 kts 106°
2026-05-07 18:10 48.84650 21.23371 4690 ft 201 kts 106°
2026-05-07 18:10 48.84351 21.25425 4444 ft 199 kts 105°
2026-05-07 18:10 48.83957 21.27404 4170 ft 191 kts 125°
2026-05-07 18:10 48.83065 21.28654 3907 ft 163 kts 162°
2026-05-07 18:11 48.82028 21.28887 3637 ft 144 kts 184°
2026-05-07 18:11 48.81371 21.28822 3487 ft 141 kts 188°
2026-05-07 18:11 48.80074 21.28591 3263 ft 139 kts 191°
2026-05-07 18:11 48.79122 21.28369 3058 ft 138 kts 192°
2026-05-07 18:12 48.78193 21.28121 2879 ft 137 kts 193°
2026-05-07 18:12 48.77248 21.27842 2738 ft 139 kts 192°
2026-05-07 18:12 48.76303 21.27549 2604 ft 139 kts 192°
2026-05-07 18:12 48.75361 21.27235 2467 ft 138 kts 194°
2026-05-07 18:13 48.74425 21.26935 2233 ft 137 kts 193°
2026-05-07 18:13 48.73492 21.26636 1985 ft 138 kts 195°
2026-05-07 18:13 48.72554 21.26270 1843 ft 140 kts 193°
2026-05-07 18:13 48.71590 21.25915 1663 ft 147 kts 191°
2026-05-07 18:14 48.70579 21.25627 1475 ft 150 kts 193°
2026-05-07 18:14 48.69559 21.25263 1212 ft 153 kts 195°
2026-05-07 18:14 48.68544 21.24905 991 ft 146 kts 193°
2026-05-07 18:14 48.67583 21.24565 784 ft 136 kts 193°
2026-05-07 18:15 48.66790 21.24275 762 ft 88 kts 193°
2026-05-07 18:15 48.66422 21.24153 759 ft 23 kts 193°
2026-05-07 18:15 48.66260 21.24099 758 ft 25 kts 192°
2026-05-07 18:15 48.66087 21.24039 759 ft 26 kts 194°
2026-05-07 18:16 48.65925 21.24033 755 ft 23 kts 134°
2026-05-07 18:16 48.65884 21.24203 760 ft 9 kts 102°
2026-05-07 18:16 48.65883 21.24209 760 ft 0 kts 103°
2026-05-07 18:17 48.65880 21.24228 755 ft 3 kts 101°
2026-05-07 18:17 48.65884 21.24278 759 ft 6 kts 70°
2026-05-07 18:18 48.65926 21.24329 760 ft 12 kts 19°
2026-05-07 18:18 48.66060 21.24376 758 ft 28 kts 12°
2026-05-07 18:18 48.66298 21.24461 760 ft 40 kts 13°
2026-05-07 18:18 48.66582 21.24560 760 ft 43 kts 13°
2026-05-07 18:19 48.66836 21.24649 760 ft 36 kts 12°
2026-05-07 18:19 48.67021 21.24714 760 ft 21 kts 14°
2026-05-07 18:19 48.67120 21.24749 759 ft 23 kts
2026-05-07 18:19 48.67207 21.24545 758 ft 20 kts 282°
2026-05-07 18:20 48.67241 21.24331 760 ft 23 kts 284°
2026-05-07 18:20 48.67279 21.24087 757 ft 21 kts 283°
2026-05-07 18:20 48.67295 21.23990 758 ft 9 kts 284°
2026-05-07 18:20 48.67324 21.23917 758 ft 6 kts 333°
2026-05-07 18:21 48.67341 21.23883 759 ft 3 kts 275°
2026-05-07 18:21 48.67335 21.23860 760 ft 2 kts 238°
2026-05-07 18:21 48.67331 21.23849 757 ft 1 kts 238°